Theta_e
289 289 289 288 288 288 288 288 288 288 288 288 288 288 288 288 288 288 288 288 288 289 289 289 289 288 288 288 288 288 288 288 288 287 287 287 287 287 286 286 286 287 287 288 288 289 290 292 293 294 295 295 295 295 296 296 296 296 296 295 296 295 295 295 294 294 294 294 294 295 295 295 295 296 296 296 296 296 296 296 297 297 297 297 297
288 288 288 288 288 288 288 288 288 288 288 288 288 288 288 288 288 288 288 288 288 288 288 288 288 288 288 289 289 288 288 288 288 288 288 288 287 287 287 287 286 286 286 286 287 287 288 288 289 291 291 293 294 295 295 295 295 295 295 295 295 295 295 295 294 294 294 294 294 294 295 295 295 295 296 296 296 296 296 296 296 296 297 297 297
288 288 288 288 288 288 288 288 288 288 288 288 288 288 288 288 288 288 288 287 287 287 287 287 287 287 288 288 288 288 288 288 288 288 288 288 288 288 287 287 287 287 287 286 286 286 286 287 287 288 288 289 291 292 293 294 294 295 295 295 295 295 295 294 294 294 294 294 294 294 294 294 295 295 295 296 296 296 296 296 296 296 296 297 297
288 288 289 289 289 288 288 288 288 288 288 288 288 288 287 287 287 287 287 287 287 287 287 287 286 287 287 287 287 287 287 287 288 288 288 288 288 288 288 288 287 287 287 287 287 287 286 286 286 286 286 287 288 288 289 291 292 293 294 294 294 294 294 294 294 294 294 294 294 294 294 294 294 294 295 295 295 296 296 296 296 296 296 296 297
289 289 289 289 289 288 288 288 288 288 288 288 287 287 287 287 287 286 286 286 286 286 286 286 286 286 286 286 286 286 286 286 286 287 287 287 287 287 287 288 287 287 287 287 287 287 287 287 286 286 286 286 286 287 287 288 288 290 292 293 294 294 294 293 294 294 293 293 293 293 293 293 294 294 294 294 295 295 296 296 296 296 296 296 296
289 289 289 289 289 289 288 288 288 288 287 287 287 287 287 286 286 286 286 286 286 286 286 286 285 285 285 285 285 285 285 285 286 286 286 286 286 286 286 287 287 287 287 287 287 287 287 287 287 287 286 286 286 286 286 286 286 287 288 290 291 293 293 293 293 293 293 293 293 293 293 293 293 293 294 294 294 294 295 295 296 296 296 296 296
289 289 289 289 289 288 288 288 288 287 287 287 287 286 286 286 286 286 285 285 285 285 285 285 285 285 285 285 285 285 285 285 285 285 285 285 284 285 285 285 286 286 286 286 286 286 286 287 287 287 287 287 286 286 286 285 285 286 286 287 288 290 291 293 293 292 292 293 293 293 293 293 292 292 293 293 293 294 294 294 295 295 295 296 296
289 289 289 289 288 288 288 288 288 287 287 286 286 286 286 285 285 285 285 285 285 284 284 284 284 284 284 284 284 284 284 284 284 284 283 283 283 283 283 284 284 284 285 285 286 286 286 286 286 286 287 287 287 287 286 286 285 285 285 286 286 287 288 290 292 292 292 292 292 292 292 292 292 292 292 292 292 293 293 293 294 294 295 295 295
289 289 289 288 288 288 288 288 287 287 286 286 285 285 285 284 284 284 284 284 284 284 284 284 284 284 284 284 284 284 284 284 284 283 282 282 281 281 281 282 282 283 283 284 285 285 285 286 286 286 286 286 286 286 286 286 286 285 285 285 285 285 286 287 289 291 292 292 292 292 292 291 292 292 292 292 292 292 293 293 293 293 294 294 295
289 289 289 288 288 288 287 287 287 286 285 285 284 284 284 284 284 284 284 284 284 284 284 284 284 284 284 284 284 284 284 284 284 283 281 280 280 280 280 280 280 280 281 282 283 284 284 285 285 285 285 285 285 285 285 285 285 285 286 285 285 285 285 285 286 288 290 291 292 292 291 291 292 292 292 292 292 292 292 292 292 292 293 293 293
289 289 288 288 287 287 287 287 286 285 284 284 284 284 283 283 283 283 284 284 284 284 284 284 284 283 283 283 283 283 283 283 282 281 280 279 279 279 279 279 279 279 279 280 281 282 283 283 284 284 284 285 285 285 285 285 284 285 285 285 285 285 285 285 285 285 287 289 291 292 290 291 292 292 291 292 292 291 292 292 292 292 292 292 293
288 288 288 287 287 287 286 285 284 284 284 283 283 283 283 283 283 283 284 284 284 284 283 283 283 283 282 282 282 282 282 281 280 279 279 279 278 277 277 277 278 278 279 279 279 279 280 281 281 282 283 284 284 284 284 284 284 284 284 284 285 285 285 285 285 285 285 286 289 290 291 291 292 292 291 291 291 291 291 291 291 291 291 291 292
288 287 287 287 286 285 284 284 283 283 283 283 283 283 283 283 283 283 283 283 283 283 283 282 282 282 281 281 281 281 280 279 278 277 277 277 276 275 276 276 277 277 277 278 278 278 278 278 279 280 281 282 283 283 283 283 284 283 283 283 284 284 285 285 285 285 284 285 286 288 289 290 292 292 291 291 290 290 290 290 291 291 291 291 291
287 287 286 285 285 284 283 283 283 283 282 282 283 283 283 283 283 283 283 283 283 282 282 282 281 280 279 279 279 279 278 276 275 275 275 274 274 274 274 275 275 276 276 276 277 277 277 277 277 278 279 279 280 280 281 282 282 282 282 282 282 283 284 285 285 285 285 284 285 285 286 288 290 291 292 291 290 290 290 290 290 290 290 291 291
286 286 285 284 283 283 283 283 282 282 282 283 283 283 282 282 282 282 282 282 282 282 281 281 280 279 278 276 276 276 275 274 274 274 273 273 273 272 272 273 274 274 275 276 276 276 276 276 276 276 277 277 277 278 278 279 280 281 281 282 282 283 283 283 284 285 285 285 284 284 285 286 287 288 290 291 291 291 291 290 290 290 290 290 290
285 284 284 283 283 283 282 282 282 282 282 283 282 282 282 282 282 281 281 281 281 281 280 279 278 277 276 275 274 274 274 273 272 272 272 272 272 271 271 272 272 273 274 274 274 274 275 275 275 275 275 276 276 276 276 276 277 278 279 280 281 282 282 283 284 284 285 285 285 285 284 285 285 286 288 290 291 291 290 290 290 289 289 289 289
284 283 283 283 283 282 282 282 282 282 282 282 282 281 281 281 281 280 281 281 280 279 278 277 276 275 274 274 273 273 273 272 272 272 271 271 271 271 271 271 271 272 273 273 273 273 273 273 273 273 274 274 275 274 275 275 276 277 278 279 279 280 281 282 283 283 284 284 285 285 285 285 284 285 285 287 289 290 290 290 289 289 289 289 289
284 283 283 283 282 282 282 282 282 282 282 281 281 281 281 281 280 280 280 280 279 278 276 275 274 273 273 273 272 272 272 272 271 271 271 271 271 270 270 270 270 270 271 271 271 271 271 271 271 272 272 273 273 273 274 275 275 276 277 278 279 280 281 282 282 282 283 283 284 284 285 285 285 284 284 285 287 289 290 290 290 289 289 289 289
283 283 283 282 281 281 281 281 281 281 281 281 281 281 280 280 280 279 279 278 277 276 275 274 274 273 273 272 272 272 272 272 271 271 271 271 270 269 268 268 268 269 269 269 269 269 269 270 270 270 271 271 272 273 274 274 274 275 275 276 277 279 280 281 282 282 283 283 283 283 284 285 285 284 284 284 285 287 289 289 290 289 289 289 289
283 283 282 281 281 281 281 281 281 281 280 280 280 280 280 279 279 279 278 277 276 275 274 273 273 273 273 272 272 272 272 271 271 271 270 270 270 269 268 268 268 268 268 268 268 268 269 270 270 270 271 271 272 273 274 274 275 275 275 275 275 276 278 279 280 281 282 283 283 283 283 284 284 284 284 284 284 285 287 288 289 289 289 289 289
283 282 281 281 281 281 281 281 280 280 280 280 280 280 279 279 278 278 277 276 275 274 274 273 273 273 273 272 272 272 272 271 270 270 270 270 270 269 268 268 268 268 268 268 269 269 270 270 270 270 271 271 272 272 272 273 274 274 275 276 276 276 276 278 279 280 281 282 283 283 283 283 283 283 284 284 284 284 285 286 288 289 289 289 289
282 281 281 281 281 281 281 280 280 280 280 280 280 280 279 278 278 277 276 275 274 274 273 273 273 273 273 273 273 272 272 271 270 270 270 270 270 269 268 268 268 269 269 269 269 270 270 270 270 270 271 271 271 272 272 273 273 273 274 275 276 277 277 278 278 279 281 282 282 283 283 283 283 283 283 284 284 284 284 285 286 288 289 289 289
282 281 281 281 281 280 280 280 280 280 280 279 279 279 279 278 277 276 275 275 274 274 273 273 272 272 273 273 273 272 272 271 271 270 270 270 270 270 269 269 270 270 270 270 270 270 270 271 271 272 272 272 272 272 273 273 274 274 274 274 275 276 277 278 278 279 280 282 283 284 284 284 283 283 283 283 284 283 284 284 285 286 288 289 289
281 281 280 280 280 280 280 280 280 279 279 279 279 279 278 278 277 276 275 275 274 274 273 273 272 272 272 272 273 273 272 271 271 270 269 270 270 270 271 271 271 271 271 271 271 271 272 272 273 273 273 273 273 274 274 274 274 274 274 275 275 276 276 277 278 278 279 280 282 284 284 284 284 283 283 283 284 284 284 284 284 285 286 288 289
281 280 280 280 280 280 280 279 279 279 279 278 278 278 278 277 277 276 275 274 274 274 273 273 272 272 272 271 271 272 271 270 270 270 270 270 271 271 272 272 272 272 272 272 272 272 273 273 273 274 274 274 274 274 274 273 273 273 273 274 274 275 276 276 277 278 279 279 281 283 284 285 284 284 283 283 283 284 283 284 284 285 286 287 288
280 280 280 280 279 279 279 279 279 279 278 278 278 278 277 277 277 276 275 274 274 273 273 272 272 271 270 269 269 269 269 269 269 269 270 271 271 272 272 272 272 272 272 272 273 273 273 273 274 274 274 274 274 273 273 273 273 273 273 274 274 274 275 276 276 277 278 279 280 282 284 285 285 284 284 283 283 283 283 283 284 285 285 286 287
280 280 280 279 279 279 279 279 279 279 278 278 278 277 277 277 276 276 275 274 274 273 272 271 271 269 268 268 268 268 268 268 268 269 270 271 272 272 272 272 273 273 273 273 273 274 274 274 274 274 274 274 274 273 273 273 273 273 273 274 274 274 275 275 276 276 278 279 279 281 283 285 285 285 284 284 284 283 283 283 284 284 285 286 286
280 279 279 279 279 279 279 279 279 279 278 278 278 277 277 277 276 276 275 274 273 272 270 269 269 269 268 268 268 268 268 269 269 269 270 271 272 273 273 273 273 273 273 274 274 274 274 274 274 274 274 274 274 273 273 273 273 273 274 274 274 275 275 275 276 277 278 279 279 280 282 284 285 285 285 285 285 284 284 284 284 284 284 285 286
279 279 279 278 278 279 279 278 278 278 278 278 277 277 277 277 276 276 275 275 273 272 269 268 268 268 268 268 269 268 268 269 270 270 271 272 273 274 274 274 274 274 274 274 275 274 274 274 274 274 274 274 274 274 274 274 274 274 274 274 274 275 275 276 276 277 279 279 279 280 282 284 285 285 285 285 285 285 285 285 285 285 285 285 285
279 279 278 278 278 278 278 278 278 277 277 277 277 277 277 277 276 275 275 275 274 273 271 270 270 269 269 269 269 269 269 269 270 271 272 273 274 274 274 274 275 275 275 275 275 275 275 275 275 274 274 274 274 274 275 275 274 274 274 274 274 274 275 276 277 278 280 280 280 280 282 284 284 285 285 285 285 285 285 285 285 285 285 285 285
279 278 278 278 278 278 277 277 277 277 277 277 277 277 277 277 277 276 275 274 274 274 273 273 272 271 270 269 269 269 270 270 270 270 271 273 274 274 274 274 275 275 275 275 275 275 275 275 275 275 275 274 274 275 275 275 275 275 274 274 274 274 275 276 277 278 280 281 281 281 282 283 284 285 285 285 285 285 285 285 285 285 285 285 284
278 278 277 277 277 277 277 277 277 277 276 276 276 276 276 276 278 278 277 276 275 274 274 273 273 273 272 272 270 270 271 271 271 271 271 271 273 274 274 274 275 275 275 275 275 274 274 275 275 274 274 274 274 274 275 275 275 275 275 274 275 275 275 276 278 279 280 282 282 282 282 282 283 284 284 285 285 285 285 285 285 285 284 284 284
278 278 277 277 276 276 276 276 276 276 276 276 276 276 275 275 276 277 277 277 277 276 275 274 272 272 273 273 272 272 272 272 272 271 271 270 271 272 273 274 274 274 274 274 274 274 274 274 274 274 273 273 274 274 274 275 275 275 275 275 275 275 276 277 278 279 280 281 282 282 283 283 283 284 284 284 284 285 285 285 284 284 284 284 284
277 277 276 276 276 276 276 276 276 276 276 276 275 275 275 274 274 274 275 276 277 277 277 277 275 274 274 274 274 273 273 273 273 271 270 270 271 271 272 273 274 274 274 274 273 273 274 274 274 274 274 274 275 275 275 275 275 275 276 275 275 276 277 278 279 280 281 281 281 281 282 282 283 283 284 284 284 285 285 285 284 284 283 283 283
276 276 275 275 275 275 275 275 275 275 275 275 275 274 274 274 274 274 274 273 274 275 276 276 276 275 275 275 275 274 274 274 273 271 271 272 272 272 272 273 274 274 274 274 273 273 273 273 274 274 275 275 276 276 275 275 276 276 276 276 276 276 277 278 279 280 281 281 281 282 282 282 282 283 283 284 284 285 285 285 284 284 283 283 283
276 275 275 274 274 274 275 275 275 275 275 275 274 274 274 273 274 274 273 273 273 273 273 274 275 275 275 274 274 275 274 273 272 271 272 272 272 272 272 272 272 272 273 273 273 273 274 274 274 275 275 276 276 276 276 276 277 277 277 277 277 277 277 278 280 281 281 280 281 282 283 283 283 283 283 284 284 284 284 284 284 284 283 283 283
275 275 274 274 274 274 274 274 275 274 274 274 274 273 273 273 273 273 273 273 273 273 273 273 273 274 274 274 274 275 274 274 273 273 273 273 273 272 272 271 271 271 271 272 272 273 274 274 274 274 275 276 276 276 277 278 278 278 278 278 277 277 278 279 279 280 281 281 280 281 281 282 282 282 282 283 283 283 283 283 283 283 283 283 282
274 274 274 273 273 273 274 274 274 274 274 273 273 273 273 273 273 273 273 273 273 273 273 272 272 272 272 273 274 274 273 273 274 275 274 273 273 272 272 271 271 271 271 271 272 272 273 274 274 274 275 276 276 277 277 278 278 278 279 279 279 278 278 279 279 279 280 281 281 281 281 281 281 281 281 281 282 282 282 283 283 283 282 282 281
274 273 273 273 272 273 273 274 274 274 273 273 273 272 272 272 273 273 273 272 273 272 272 272 271 271 271 272 272 271 271 272 273 274 274 273 272 272 271 271 271 271 271 271 272 272 272 274 274 274 275 276 276 277 277 278 278 278 279 279 280 280 280 280 280 280 281 281 281 281 281 281 282 282 282 282 282 282 282 283 283 283 282 282 281
273 273 272 272 272 272 273 273 273 273 273 273 272 272 272 272 272 272 272 272 272 272 272 271 271 270 271 271 270 269 269 271 271 271 271 272 271 271 271 271 271 271 271 271 271 272 272 272 273 274 275 276 276 276 277 277 278 279 279 279 280 280 280 280 281 281 281 281 281 282 282 282 282 282 283 283 283 283 283 283 283 282 282 281 281
272 272 272 271 271 272 272 273 273 272 272 272 272 272 272 272 272 272 272 272 272 272 272 271 271 270 270 270 269 269 269 270 270 270 270 270 270 270 270 270 270 270 270 270 271 271 271 272 272 273 274 275 276 276 276 277 278 279 279 279 279 280 280 280 280 280 280 280 280 281 281 281 282 282 282 282 282 282 282 282 282 281 281 280 280
272 271 271 271 271 271 272 272 272 272 271 271 271 271 271 271 271 271 271 271 271 271 271 271 271 270 270 270 270 269 270 270 270 270 270 270 270 269 269 269 270 270 270 270 270 270 271 271 272 272 273 274 274 275 275 276 277 278 279 279 279 279 279 279 279 279 279 279 279 280 280 280 281 281 281 281 281 281 281 281 280 280 279 279 278
271 271 271 270 271 271 271 271 272 271 271 271 271 271 271 271 271 271 271 271 271 270 270 270 270 270 270 270 270 270 270 270 270 270 270 270 270 270 269 269 269 270 270 270 270 270 270 271 271 272 272 272 273 273 274 274 275 276 277 278 278 277 277 277 277 278 278 278 278 278 279 279 280 280 280 280 280 280 280 279 279 279 278 278 277
271 270 270 270 270 270 270 271 271 271 271 271 271 270 270 271 271 270 270 270 270 270 270 270 270 270 270 270 270 270 270 270 270 270 270 270 270 270 270 270 269 269 270 270 270 271 271 270 271 271 272 272 272 273 273 273 273 274 275 275 275 275 276 276 276 277 277 277 277 278 278 278 278 278 278 279 279 279 279 278 278 278 277 277 277
270 270 270 270 270 270 270 270 270 270 271 270 270 270 270 270 270 270 270 270 270 269 269 269 269 269 270 270 270 270 270 270 270 269 270 270 270 270 270 270 270 270 270 270 270 271 271 271 271 271 271 272 272 272 273 273 273 273 273 274 274 274 274 274 275 275 275 276 276 277 277 277 277 277 277 277 277 277 277 277 277 277 276 276 276
269 269 269 269 269 269 269 269 270 270 270 270 270 270 270 270 270 270 270 269 269 269 269 269 269 269 269 269 269 269 269 269 269 269 269 269 269 270 270 270 270 270 270 270 270 270 271 271 271 271 271 271 271 272 272 272 272 273 273 273 273 273 273 274 274 274 274 275 275 275 276 276 276 276 276 276 276 276 276 276 276 275 275 275 275
269 269 269 269 269 269 269 269 269 269 269 269 270 270 270 270 270 269 269 269 269 269 269 269 269 269 269 269 269 269 269 269 269 269 269 269 269 269 270 270 270 270 270 270 270 270 271 271 271 271 271 271 271 271 271 272 272 272 273 273 273 273 273 273 274 274 274 274 274 274 274 274 275 275 275 275 275 275 275 275 274 274 274 274 274
268 268 268 269 269 269 269 269 269 269 269 269 269 269 270 269 269 269 269 269 268 268 268 268 269 269 269 269 269 269 269 269 269 269 269 269 269 269 269 270 270 270 270 270 270 271 271 271 271 271 272 272 272 272 271 271 272 272 272 272 272 272 272 273 273 273 273 273 273 273 273 273 274 274 274 274 274 274 274 274 273 273 273 273 273
268 268 268 268 268 268 268 268 268 268 268 268 268 269 269 269 269 269 269 268 268 268 268 268 268 269 269 269 269 269 269 269 269 269 269 269 269 269 269 269 269 270 270 270 270 270 270 271 271 271 271 271 272 272 272 271 271 271 272 272 272 272 272 272 272 272 272 272 272 273 273 273 273 273 273 273 273 273 273 273 273 272 272 272 272
268 268 268 268 268 268 268 268 268 268 268 268 268 268 268 268 268 269 268 268 268 268 268 268 268 268 268 268 269 269 269 269 269 269 269 269 269 269 269 269 269 269 270 270 270 270 270 270 270 271 271 271 271 271 272 272 271 271 271 271 272 272 272 272 272 272 272 272 272 272 272 272 272 272 272 272 272 272 272 272 272 272 271 271 271
268 268 268 268 268 268 268 267 267 267 267 267 267 268 268 268 268 268 268 268 268 268 268 268 268 268 268 268 268 268 269 269 269 269 269 269 269 269 269 269 269 269 269 269 269 270 270 270 270 270 271 271 271 271 271 271 271 271 271 271 272 272 272 272 272 272 272 272 272 272 272 272 272 272 272 272 271 271 271 271 271 271 271 271 271
Wind_Speed
10 10 11 12 13 13 14 15 16 17 18 19 20 20 21 22 22 22 22 22 23 23 24 25 26 28 28 29 29 30 30 30 31 32 32 32 31 31 30 28 28 28 27 26 26 26 27 28 28 28 26 28 30 31 34 35 36 37 37 38 40 41 40 40 46 52 52 48 47 45 42 41 43 45 44 43 42 39 38 37 36 38 40 40 39
10 11 13 14 15 16 16 17 18 20 21 22 23 23 23 24 25 26 26 26 27 27 27 27 28 29 30 31 32 32 33 33 33 33 34 34 35 34 34 34 33 32 31 29 28 27 28 29 30 30 28 29 29 29 30 31 33 36 37 38 40 41 40 40 43 49 52 50 47 47 45 43 44 45 45 45 44 42 41 39 39 39 39 39 39
10 11 12 14 15 16 18 19 20 21 22 23 23 23 24 25 26 27 28 29 30 30 30 31 31 31 31 31 32 33 34 35 36 36 37 37 37 37 36 37 37 38 37 35 32 30 30 30 31 30 30 31 32 30 29 29 29 32 35 37 39 41 39 39 41 46 50 49 47 47 47 46 47 46 44 44 44 43 43 42 41 40 40 40 40
11 12 13 14 16 17 19 21 22 23 24 24 24 25 25 26 27 28 29 29 30 31 31 32 33 34 35 34 34 34 34 35 35 37 38 39 40 40 39 39 39 39 40 40 39 37 34 33 32 31 31 33 34 33 32 31 29 29 31 33 36 40 40 39 40 43 46 48 47 46 45 46 48 47 45 43 43 43 44 44 43 43 43 42 42
14 15 15 16 18 20 22 24 25 25 26 26 27 28 29 30 31 31 32 32 33 33 34 34 36 37 38 39 39 39 39 38 38 38 38 38 40 41 42 42 42 41 41 41 42 42 41 40 37 34 33 33 35 35 34 34 32 31 31 31 32 35 37 39 41 42 43 47 48 45 43 44 46 47 47 46 44 43 44 44 45 45 45 45 45
17 17 18 19 22 24 26 27 28 28 28 29 29 30 30 31 32 33 35 37 38 39 39 40 41 42 43 43 44 44 44 44 44 43 42 41 41 41 42 43 44 44 44 43 42 42 43 44 44 41 38 36 35 36 36 36 35 34 33 32 31 31 33 36 38 41 43 47 48 45 43 43 43 44 47 48 47 46 45 45 45 46 47 47 47
18 19 20 22 24 27 28 30 30 30 30 30 30 31 31 32 34 35 37 39 40 42 43 44 45 46 47 47 48 48 49 49 49 49 48 47 45 45 44 44 45 45 46 47 46 45 44 44 45 45 44 43 40 38 37 37 37 37 35 34 33 32 32 33 35 38 42 46 47 46 45 43 42 43 44 45 47 49 49 48 47 47 48 48 47
19 20 22 24 26 28 30 32 32 32 32 31 31 32 33 35 37 38 39 41 42 43 44 45 46 47 48 49 49 50 51 51 52 51 51 49 48 47 47 47 47 47 47 47 48 48 48 48 47 47 47 47 46 44 41 38 38 39 38 36 35 35 34 34 34 36 39 43 46 47 46 44 43 42 42 43 47 51 52 51 50 50 49 48 48
20 22 24 25 27 29 32 34 34 34 33 33 33 35 37 39 40 41 42 43 44 45 45 46 47 48 48 49 49 50 51 51 51 51 50 49 47 46 46 46 47 48 49 49 49 49 50 51 51 50 49 49 49 48 47 44 41 40 40 38 37 37 37 37 36 36 38 41 44 46 45 45 45 44 43 45 48 51 51 50 52 53 51 49 49
23 24 25 26 28 31 33 34 34 34 34 35 37 39 40 41 42 43 44 45 45 46 47 47 48 49 49 50 50 50 51 51 51 50 49 46 44 43 44 45 45 46 48 50 52 52 51 51 52 53 53 52 52 51 50 49 46 44 42 40 39 39 39 39 39 39 39 41 43 44 44 46 48 47 47 48 47 47 48 50 52 52 51 51 52
23 24 25 27 29 32 33 33 33 33 35 37 39 40 42 42 43 44 45 45 46 46 47 48 48 49 50 51 52 52 52 52 51 51 50 47 44 42 43 45 46 47 48 49 51 52 52 52 52 53 54 54 55 54 54 53 51 49 46 44 42 41 41 41 42 41 42 43 44 44 45 47 48 47 47 47 46 45 46 48 49 50 50 53 55
23 25 26 29 30 31 31 32 33 35 37 38 40 40 42 42 43 44 45 45 46 47 48 49 50 51 51 52 54 54 54 54 52 51 51 50 47 43 43 46 48 49 50 50 51 52 52 53 53 53 54 55 55 55 55 55 55 53 51 48 46 44 43 43 43 43 43 44 45 46 46 47 48 46 45 46 45 44 45 46 48 50 51 53 55
25 27 29 29 29 29 31 33 35 36 37 38 39 40 41 41 42 43 44 45 47 48 50 51 52 53 53 54 55 56 56 54 52 51 51 50 48 45 44 47 50 51 51 52 52 53 53 53 54 55 55 55 54 54 55 55 55 54 53 51 50 48 46 45 45 45 44 45 47 48 48 47 48 47 45 44 43 42 43 45 47 49 51 53 55
27 28 28 28 28 30 32 34 36 37 37 38 39 39 40 41 42 43 45 46 48 50 51 53 54 54 53 53 54 55 54 51 49 49 48 47 46 44 43 46 48 50 51 52 52 53 54 54 54 56 57 56 54 54 53 53 52 52 52 52 53 53 51 49 47 47 46 46 48 50 49 47 48 47 44 43 42 43 44 45 46 48 50 51 51
26 26 26 27 29 31 33 34 35 37 37 38 39 39 40 41 42 43 45 46 48 50 52 52 52 52 51 50 51 52 50 46 45 45 43 43 42 40 41 43 46 48 50 51 51 52 53 53 53 54 56 55 53 51 49 48 48 49 49 50 52 53 54 54 52 50 49 48 48 49 49 48 47 46 45 45 45 45 45 45 44 43 43 45 47
25 25 26 29 31 32 33 35 36 37 37 38 38 39 40 41 42 43 45 47 49 50 50 50 49 49 48 46 47 48 46 43 41 40 39 38 38 38 39 42 44 46 48 49 50 50 51 51 52 53 54 55 55 51 47 45 47 49 51 52 52 53 54 56 56 54 53 51 50 49 49 48 47 45 45 45 46 46 44 43 40 38 37 41 45
26 27 29 31 32 33 33 35 35 36 37 37 38 39 40 41 42 44 46 48 49 49 48 47 46 45 45 44 43 45 44 41 38 37 36 35 34 35 37 39 41 43 45 46 46 47 48 46 45 46 47 49 50 46 41 39 42 46 49 51 53 54 57 59 58 58 56 54 52 51 49 48 47 46 45 44 45 45 44 43 42 40 40 42 45
27 28 31 32 32 32 33 34 34 35 36 37 38 39 40 42 42 44 46 48 48 47 46 46 44 42 41 41 40 41 41 38 35 35 33 31 30 30 32 35 38 40 42 42 42 42 43 40 36 36 39 41 41 38 35 36 39 43 45 47 49 51 54 57 58 58 57 55 53 52 51 50 48 46 45 44 43 44 45 46 46 44 43 45 48
27 30 32 32 32 32 32 32 33 34 35 37 38 39 40 41 42 43 44 45 45 45 43 43 42 39 38 37 37 37 38 36 33 32 30 27 25 27 30 34 36 38 39 41 41 41 41 40 37 35 36 38 37 36 35 35 38 42 45 47 51 53 54 53 52 52 52 52 53 53 52 51 49 47 47 45 44 44 46 48 47 45 46 48 49
29 31 32 31 31 31 31 32 33 34 35 37 38 39 39 40 42 42 42 42 42 42 40 39 39 38 36 35 35 35 35 34 31 29 27 25 23 25 29 33 36 38 39 41 43 42 41 40 37 33 32 33 34 34 34 34 35 39 42 45 51 56 57 54 51 49 49 50 51 52 52 52 50 48 48 47 46 45 45 46 47 47 48 49 49
30 31 31 30 30 30 30 31 32 34 35 36 38 38 38 39 40 41 41 40 40 39 37 36 37 36 34 34 34 34 32 31 29 26 25 24 24 25 30 33 35 38 41 41 42 42 40 39 38 35 34 36 38 38 38 37 36 38 41 44 48 50 51 51 51 50 49 50 51 51 52 52 52 51 50 49 47 46 45 45 46 47 49 50 50
31 31 30 29 29 29 29 30 32 33 34 35 37 37 37 38 38 38 38 38 37 37 36 35 35 36 35 34 33 32 29 27 27 26 26 27 26 26 29 32 34 36 40 42 42 43 43 42 42 41 39 39 40 39 39 38 37 39 42 44 45 45 45 48 49 49 50 51 51 52 52 52 52 52 52 51 48 46 45 44 44 45 48 50 51
31 30 29 29 28 28 29 30 31 32 33 34 35 36 36 37 37 36 36 36 36 36 35 35 35 36 36 34 32 30 29 27 27 28 29 30 29 28 28 30 31 33 37 41 42 43 43 43 42 41 40 40 39 39 39 39 40 41 42 43 44 44 44 45 47 49 50 50 51 52 53 53 52 51 52 51 49 46 45 44 43 43 45 47 49
31 29 28 28 27 28 29 30 31 31 32 32 34 34 35 36 36 35 34 34 35 36 35 35 36 37 37 36 33 31 31 31 31 32 33 33 31 29 28 28 29 31 34 37 38 39 41 41 39 39 39 39 40 41 42 42 41 42 43 43 44 44 44 45 47 48 51 52 51 52 53 53 53 52 51 50 47 45 44 44 43 43 43 44 45
30 28 27 27 27 27 29 29 30 30 30 31 32 33 34 35 35 34 33 32 33 35 35 35 36 37 38 39 38 36 36 36 37 37 36 34 31 30 29 29 30 31 33 35 37 38 39 38 37 37 38 38 39 40 41 40 38 39 40 41 42 42 43 46 46 46 50 53 54 53 53 53 53 52 51 49 46 45 45 45 44 44 42 41 42
29 28 27 26 26 28 29 29 29 30 29 30 30 30 31 34 35 33 32 32 33 34 35 36 37 38 39 40 41 41 41 41 42 41 38 34 32 32 33 34 34 34 36 38 39 40 40 38 37 37 37 38 40 40 41 40 38 38 38 39 40 42 43 45 46 46 48 52 54 54 54 53 52 51 49 48 48 47 46 45 44 44 42 40 40
28 27 26 26 26 27 29 29 29 30 29 29 29 29 29 31 33 32 31 32 34 35 36 37 38 40 41 42 42 43 43 43 43 42 39 37 37 38 39 40 39 39 41 42 42 42 41 40 39 39 39 40 42 43 43 43 41 39 39 38 39 41 42 42 44 45 48 51 54 54 53 51 50 49 48 49 49 48 46 46 45 44 42 40 39
27 26 25 25 26 27 28 28 29 29 29 29 28 28 28 30 32 31 29 31 35 36 36 37 39 39 41 42 43 43 43 43 43 41 40 39 39 40 40 41 42 43 44 44 43 43 42 41 42 42 41 42 43 44 44 44 43 43 43 41 39 40 41 41 41 43 46 49 53 54 51 47 46 47 47 48 49 48 46 46 45 44 42 39 38
27 25 25 25 26 27 27 27 28 29 29 29 28 27 26 28 32 32 29 29 32 34 34 35 36 37 38 39 40 41 42 42 41 39 37 36 35 36 37 37 39 40 40 40 40 40 39 39 41 42 43 44 45 46 46 47 47 47 46 42 39 38 39 41 41 41 42 44 50 53 51 47 44 44 44 45 46 47 46 45 45 43 41 40 39
26 25 25 26 26 27 27 27 27 28 28 29 29 27 24 23 27 31 31 30 30 31 31 31 32 32 34 35 35 36 38 39 38 36 35 34 33 33 33 33 34 35 34 34 35 36 36 38 41 42 43 45 46 47 48 49 48 47 45 42 39 38 38 40 39 37 37 40 47 48 47 44 43 42 43 43 44 45 45 45 45 43 41 40 39
26 25 25 26 26 26 26 26 27 27 27 28 29 29 27 23 20 23 28 31 31 30 29 28 28 28 30 32 33 33 33 34 35 35 35 34 33 32 31 32 33 33 32 32 34 35 35 38 41 42 42 43 44 46 47 47 47 45 43 42 40 39 38 38 36 33 32 35 44 46 44 42 40 40 40 41 41 42 43 43 42 42 41 41 39
26 26 26 26 25 25 25 26 26 27 27 27 27 28 30 29 24 20 20 24 29 31 30 29 29 28 28 29 30 31 32 32 33 33 34 34 33 31 31 32 32 32 31 32 34 35 36 38 40 41 41 42 44 45 46 45 45 43 41 40 39 37 36 34 32 30 28 28 35 42 44 44 42 40 40 41 41 41 41 41 41 40 40 39 39
25 25 26 26 25 24 24 25 25 26 26 26 26 26 27 30 31 28 23 21 21 23 26 28 29 30 29 28 28 29 30 30 30 29 31 33 33 32 31 31 31 31 31 31 32 34 36 37 39 40 41 42 44 45 45 44 43 41 38 36 35 33 32 30 29 27 26 25 27 31 36 40 39 38 39 40 40 41 42 42 41 40 39 39 39
23 24 25 25 25 24 23 24 24 25 25 25 25 25 25 27 30 32 32 29 25 23 22 23 27 30 30 29 29 29 30 29 28 28 29 31 31 30 31 31 29 27 25 25 26 29 31 33 36 38 39 41 43 44 43 41 39 37 34 32 30 29 28 28 27 25 23 24 25 27 30 33 34 34 37 39 39 40 41 41 40 39 39 39 40
22 23 23 24 24 23 22 22 23 24 24 23 23 24 25 26 27 28 30 31 31 30 28 26 27 28 29 29 29 29 29 29 29 29 29 29 28 28 29 29 27 24 21 20 22 24 26 29 32 34 37 40 41 41 40 38 35 31 29 27 27 27 27 27 24 21 19 21 24 26 28 30 32 34 36 37 38 38 40 41 41 40 39 39 40
22 22 22 23 23 22 21 21 22 22 22 22 22 23 23 24 25 26 27 27 28 29 29 28 27 27 26 27 28 28 29 30 30 29 27 25 25 25 26 26 25 24 22 21 21 22 24 26 29 31 34 35 36 37 36 32 28 24 23 23 24 25 26 25 22 18 17 19 21 23 24 25 27 30 32 33 34 36 37 37 37 37 38 39 41
21 22 22 22 21 20 20 20 20 21 21 21 21 21 22 22 23 24 25 25 26 26 26 26 27 28 28 28 28 29 30 30 29 27 25 23 22 23 24 24 24 23 23 22 22 23 24 26 28 30 31 31 34 36 32 26 23 20 19 20 22 24 25 26 24 22 21 19 19 20 21 21 22 24 26 28 30 32 32 33 35 37 40 41 41
21 21 22 21 20 19 19 19 19 19 19 19 20 20 20 21 22 22 22 23 23 24 25 25 26 27 29 29 30 31 31 30 29 28 27 26 25 24 23 23 23 23 23 23 23 24 25 26 27 29 29 30 33 35 31 25 22 21 20 20 21 23 25 26 27 27 26 23 20 19 19 20 20 21 23 25 28 30 32 35 39 40 41 40 40
20 21 21 20 20 19 18 18 18 18 17 18 19 19 20 20 20 21 21 21 22 22 23 24 24 25 26 28 30 31 32 31 31 31 30 29 28 26 25 24 24 23 24 24 24 24 25 26 27 29 30 31 32 32 30 26 22 20 21 22 23 24 25 27 28 29 28 25 22 20 19 19 20 22 24 27 30 33 36 39 40 41 40 40 40
20 20 19 19 19 18 18 17 17 17 17 17 17 18 19 19 20 20 20 21 22 22 22 22 22 23 24 26 27 29 30 31 31 32 32 31 31 29 28 27 26 25 24 24 25 25 25 25 26 27 28 29 30 30 29 26 22 18 17 18 20 22 23 24 25 26 27 25 23 22 21 20 21 24 27 29 31 34 36 37 38 38 38 38 38
20 19 18 18 18 18 17 17 16 16 16 16 17 18 18 19 19 19 19 20 21 21 20 20 20 20 21 22 23 24 26 28 30 30 31 32 32 32 31 30 28 27 26 25 24 24 25 25 26 26 25 25 26 26 25 23 21 18 16 15 15 16 17 18 18 20 21 21 21 22 23 22 22 23 25 27 28 30 32 33 34 34 34 34 34
20 18 17 17 17 17 16 16 15 15 15 16 16 17 17 18 18 18 18 19 19 19 19 18 18 18 19 20 21 22 23 25 27 28 29 30 31 31 32 32 31 29 27 26 25 24 24 24 24 24 24 24 24 24 22 21 19 18 16 14 14 13 13 13 13 14 15 16 18 19 20 21 21 21 22 23 25 26 28 29 30 31 31 31 31
19 18 17 16 16 16 16 15 15 15 15 15 15 16 16 17 17 17 17 17 17 17 17 17 17 17 17 18 20 21 22 23 25 26 27 28 29 30 30 31 31 31 29 28 26 25 24 23 23 22 22 23 23 23 22 20 18 16 14 13 12 12 12 12 12 13 13 14 14 16 17 17 17 17 18 19 21 22 24 25 26 27 27 28 28
19 18 17 16 16 15 15 15 15 15 15 15 15 15 16 16 16 16 16 16 15 15 15 16 16 17 17 18 19 20 21 23 24 25 26 27 28 28 29 29 30 30 30 30 29 27 26 25 25 23 22 20 20 20 20 20 19 17 15 14 13 12 12 12 11 11 11 11 11 12 12 13 13 14 14 15 16 18 19 21 22 23 24 25 25
18 17 16 16 15 14 14 14 14 14 15 14 14 13 14 15 15 15 15 15 14 14 14 14 15 16 17 18 19 20 21 22 23 24 25 26 27 27 28 28 28 29 29 29 29 29 28 27 27 26 25 23 21 19 18 18 18 18 17 16 14 13 13 12 12 11 10 9 8 7 7 8 9 10 11 11 12 14 15 16 18 19 20 22 23
18 17 16 15 15 14 13 13 13 13 13 14 13 12 13 14 14 14 15 15 14 13 13 14 14 15 16 17 18 19 20 21 22 23 24 25 26 26 27 27 27 27 28 28 28 28 28 27 27 27 27 27 25 23 20 18 17 17 16 15 15 14 13 12 12 11 10 9 8 6 5 5 5 6 7 8 9 10 11 13 14 16 17 19 21
17 16 16 15 14 13 13 12 12 12 12 12 12 13 13 13 13 13 14 14 13 13 13 13 14 14 15 16 17 17 18 19 20 21 22 23 24 24 25 26 26 27 27 27 27 27 27 27 27 27 27 27 27 27 25 23 20 18 16 15 14 14 13 12 11 11 11 10 9 8 7 6 4 3 4 4 6 7 9 10 12 13 15 16 18
17 16 16 15 14 13 13 12 12 12 12 11 12 12 12 12 12 13 13 13 13 13 13 13 13 14 14 15 15 16 17 18 18 19 20 21 21 22 23 24 25 25 26 26 27 27 27 27 27 27 27 27 27 27 28 27 25 23 21 20 18 17 15 13 12 12 12 12 11 10 8 7 5 3 1 2 3 5 6 8 10 11 13 14 16
16 16 16 15 14 13 12 12 12 11 11 11 11 12 12 12 12 12 13 13 13 13 13 13 14 14 14 14 15 15 16 17 17 18 18 19 20 20 21 22 22 23 24 25 26 26 27 27 27 27 27 28 28 28 28 28 28 27 26 25 23 22 20 18 17 16 15 14 13 11 10 8 6 4 2 1 2 3 5 7 9 10 12 13 15
16 16 15 14 13 12 12 12 12 12 12 12 12 12 12 12 12 13 13 13 13 13 13 13 14 14 14 15 15 15 16 16 17 17 17 18 18 19 20 20 20 21 22 23 23 24 25 26 26 26 27 27 28 28 28 28 28 28 27 26 25 24 24 23 22 21 19 18 16 14 12 10 7 6 5 4 4 4 5 7 9 10 12 13 15
16 15 14 14 13 12 12 12 12 12 12 12 13 13 12 12 13 13 13 13 13 13 13 13 14 14 14 15 15 16 16 16 16 16 16 17 17 18 18 19 20 20 21 21 22 22 23 24 25 25 25 26 26 26 27 26 26 26 26 25 25 24 24 24 24 23 22 21 19 17 15 12 10 9 9 8 7 7 7 8 9 10 11 12 13
Wind_Direction
1 358 357 357 354 351 348 345 344 341 339 337 335 334 332 330 328 324 322 321 318 315 314 313 312 311 311 310 311 310 310 310 310 310 310 310 311 312 313 312 310 308 306 302 300 299 298 296 295 294 293 287 281 275 270 266 264 262 260 261 260 258 261 264 266 268 268 267 267 267 265 262 260 259 259 260 259 259 258 256 254 253 252 250 248
350 350 349 350 348 346 344 342 341 338 336 334 332 331 330 329 327 325 323 322 320 318 316 313 310 308 306 306 305 305 305 305 305 305 305 305 305 305 306 307 307 307 307 305 304 301 297 295 294 295 296 293 289 286 281 276 271 266 263 261 261 259 259 261 265 268 269 267 267 266 265 263 260 259 258 258 259 259 259 256 254 253 253 252 249
336 337 339 340 340 339 337 334 333 331 330 329 328 327 326 326 325 324 322 321 320 320 318 317 314 311 308 305 303 302 301 301 301 301 301 301 301 301 301 302 302 303 303 304 304 303 299 296 294 294 295 293 291 290 288 285 280 275 270 265 263 261 260 260 262 266 269 269 268 266 265 263 261 260 259 259 260 260 259 258 255 253 252 251 250
324 325 329 332 333 333 331 329 327 327 328 328 327 327 326 325 325 323 321 320 319 318 317 316 315 314 312 310 307 304 302 300 299 298 298 299 299 299 299 298 298 298 298 299 299 300 299 297 295 294 293 291 290 290 290 289 287 284 279 273 268 265 263 262 261 263 267 270 269 267 266 264 262 261 260 259 258 257 258 257 255 252 251 250 250
314 315 318 324 327 328 328 327 327 327 327 327 327 327 327 326 325 323 322 320 318 317 316 314 313 311 310 309 308 306 305 303 300 298 297 297 297 297 297 297 296 295 294 293 294 295 295 295 294 293 291 289 288 288 289 289 288 286 283 280 275 271 268 265 263 262 264 267 268 268 267 265 263 261 259 257 256 255 255 254 252 250 249 248 248
306 309 313 319 323 324 325 326 326 325 325 325 325 325 324 323 322 321 320 319 317 316 315 313 312 310 308 307 306 305 304 302 300 299 296 295 293 292 292 292 292 292 292 291 290 290 290 290 290 291 289 287 286 286 287 287 287 286 283 282 279 276 273 269 267 264 263 264 265 267 266 265 264 262 259 257 255 254 253 252 250 248 246 246 246
303 306 311 316 318 319 321 322 322 322 321 322 322 321 321 319 318 316 315 314 313 312 311 310 309 308 306 305 304 303 302 301 300 299 298 296 295 292 289 287 286 285 286 287 287 287 286 286 286 286 287 287 285 284 283 283 284 284 282 282 281 279 276 273 270 268 265 264 264 265 265 264 264 263 261 259 257 255 253 252 250 247 245 244 245
297 300 306 309 310 312 315 317 318 318 318 318 318 317 316 314 313 312 310 310 309 308 307 306 305 304 303 303 302 301 301 300 299 299 300 300 300 298 295 291 288 285 282 280 280 282 283 283 283 282 283 284 284 283 281 280 280 280 280 280 281 280 278 276 272 270 268 266 265 264 264 264 262 261 260 258 255 253 251 250 249 249 247 245 245
286 291 296 299 301 305 310 313 313 313 314 314 314 313 312 311 310 309 309 308 308 307 306 305 304 303 302 301 300 299 298 298 298 299 300 302 302 302 300 297 294 291 287 283 279 276 277 278 279 280 280 281 281 281 281 279 278 277 277 278 278 278 278 277 274 271 269 268 267 266 265 263 260 259 257 255 253 253 253 252 252 251 249 248 246
277 282 286 290 295 301 306 308 308 309 310 310 310 310 309 309 309 309 309 309 309 308 308 307 306 305 304 303 301 300 299 298 297 297 298 300 300 299 298 296 295 293 291 288 285 280 277 275 274 275 277 278 278 278 279 279 278 276 274 274 275 276 276 275 274 272 270 268 268 267 265 262 261 258 256 255 255 256 257 255 254 253 251 249 248
273 276 280 286 293 298 302 303 304 306 307 308 308 308 309 309 310 310 310 310 310 310 309 308 308 307 306 304 303 301 299 298 297 295 295 294 294 295 294 293 292 291 290 289 288 286 283 279 276 273 272 273 274 275 276 277 277 277 274 271 270 271 273 273 272 272 270 269 268 266 263 262 262 260 258 257 256 255 256 256 256 255 251 249 248
274 278 283 288 293 296 299 301 303 305 306 307 308 308 309 310 310 311 311 311 311 311 310 310 309 308 306 303 302 300 298 296 295 293 292 291 291 292 292 290 289 288 287 287 286 286 285 284 281 278 275 272 272 273 274 275 275 276 275 273 270 267 266 268 270 270 269 268 267 266 263 263 264 261 258 258 256 255 255 255 255 255 253 251 251
281 284 288 291 294 297 299 302 304 306 307 308 309 309 310 311 312 312 313 313 313 312 312 311 309 307 305 303 301 298 297 296 295 293 292 291 291 291 290 287 286 285 284 284 284 284 284 283 283 281 279 276 274 273 272 273 274 274 275 275 273 269 264 262 264 266 267 267 266 265 264 263 263 262 260 259 257 256 254 253 253 253 252 252 253
287 288 290 292 295 299 302 305 307 308 309 310 310 311 312 313 314 315 315 314 314 313 313 311 309 307 305 303 301 299 298 298 297 296 294 292 291 290 288 286 284 283 282 281 281 280 280 281 281 280 279 278 276 274 273 273 275 276 276 275 273 271 267 263 261 261 263 264 263 264 264 263 263 265 264 259 257 256 255 253 253 253 253 256 258
289 290 291 295 300 303 307 309 310 311 311 312 312 313 314 315 316 316 315 315 315 314 312 310 309 307 306 305 303 302 302 302 301 299 297 295 293 290 288 285 283 282 281 280 280 280 280 279 279 278 278 278 277 275 274 273 273 274 275 275 274 272 270 266 261 258 258 261 263 264 265 264 264 266 265 261 258 257 257 257 257 257 258 261 262
292 293 296 302 306 309 311 312 312 312 313 313 314 315 316 316 317 317 317 316 315 314 312 311 310 309 308 308 306 304 304 305 304 302 299 297 294 291 288 286 284 283 282 282 281 281 280 280 280 280 279 279 278 277 275 274 272 270 270 270 271 271 270 267 264 260 257 257 259 263 264 265 265 265 264 263 260 259 257 256 256 255 253 254 255
294 298 303 308 311 312 313 313 313 314 314 315 316 316 317 318 319 319 318 317 316 315 314 313 312 311 310 310 309 307 306 307 306 304 301 298 296 294 292 290 288 287 285 285 285 284 284 285 286 287 286 285 284 283 280 276 274 272 271 270 270 269 268 266 265 263 261 258 258 259 261 262 263 263 262 261 259 258 255 251 250 248 245 244 247
297 302 307 310 312 313 313 314 314 314 315 316 317 318 319 320 321 320 319 317 317 316 315 314 313 312 312 311 311 309 308 309 309 306 303 301 298 296 295 293 291 290 289 289 289 289 288 288 288 289 288 287 287 287 284 279 274 271 268 268 269 269 268 266 266 265 265 263 260 258 258 258 260 261 261 258 256 255 251 250 249 246 242 242 244
300 305 309 311 312 313 314 314 315 315 316 317 318 320 321 321 321 320 319 318 317 315 314 314 313 313 313 313 313 311 311 311 311 308 306 304 301 299 298 295 294 293 293 292 293 293 293 294 294 292 290 289 290 289 286 283 279 274 270 268 266 264 262 263 265 266 266 266 264 260 257 256 257 260 261 259 256 252 249 249 249 245 242 242 243
302 307 309 311 312 313 314 315 316 317 318 319 320 320 321 322 321 320 319 318 315 314 314 315 314 315 317 316 316 315 315 314 315 313 311 309 307 303 299 296 295 295 295 295 297 299 299 300 299 297 294 292 292 291 288 285 282 279 276 271 267 264 261 262 264 265 265 265 264 263 260 257 256 258 259 258 257 254 250 248 247 245 243 243 242
304 308 309 310 312 313 315 316 317 318 319 320 320 321 322 322 321 321 319 316 314 314 316 317 316 317 319 320 318 318 318 318 319 319 317 317 317 311 302 298 298 297 297 298 299 298 297 296 295 294 292 291 290 289 288 285 282 279 276 273 271 268 266 265 265 265 264 263 262 262 261 258 256 257 258 257 256 255 252 249 247 245 243 243 242
305 308 309 311 312 314 316 317 317 318 319 320 320 321 322 322 321 321 318 315 314 317 320 321 321 321 322 322 321 320 321 322 323 324 324 325 325 318 306 299 298 298 298 298 297 296 296 296 297 298 296 293 290 287 285 283 281 278 275 273 273 271 269 266 264 263 263 262 259 257 257 257 255 254 256 256 255 254 253 251 249 247 246 245 244
305 307 309 311 313 315 316 317 317 318 320 320 319 321 323 322 321 320 317 317 319 322 325 327 327 325 324 323 323 324 325 325 326 328 329 329 329 325 315 304 299 296 296 296 297 299 300 301 303 305 304 299 294 292 290 287 284 281 278 276 274 272 270 268 264 261 260 260 258 254 252 252 252 251 252 253 253 252 251 251 250 249 248 248 247
305 307 309 311 314 315 316 316 317 319 320 319 319 322 324 322 320 319 320 322 324 326 329 331 330 328 326 325 326 327 328 328 329 330 330 329 328 326 321 313 307 302 299 298 300 303 305 308 310 311 309 303 299 296 292 288 285 282 281 279 276 273 271 270 267 262 258 257 256 253 249 248 248 248 248 248 249 251 252 252 252 252 251 250 249
305 307 310 312 315 315 315 316 318 319 319 319 321 324 324 322 320 321 324 327 328 329 332 334 332 330 330 330 330 331 331 330 329 329 328 327 326 324 322 319 316 311 305 302 304 306 308 310 310 307 303 298 295 294 292 290 287 284 281 279 277 274 271 269 270 267 261 255 253 252 249 246 246 247 247 247 247 250 252 252 252 253 252 251 251
305 308 310 313 315 315 314 316 318 319 319 321 323 325 325 321 320 323 329 332 332 333 335 335 334 333 331 330 329 328 328 327 324 324 324 325 325 324 322 319 316 314 309 305 306 306 306 306 305 302 300 298 297 296 295 294 291 285 281 278 276 274 272 270 270 270 266 259 253 251 249 246 245 246 247 247 247 248 249 250 251 251 250 250 248
305 308 311 313 314 313 314 316 318 319 320 322 324 325 325 321 320 325 333 335 335 337 338 336 335 332 328 326 324 323 322 321 319 319 322 324 324 322 320 317 316 313 310 308 309 308 307 306 306 304 302 301 300 298 296 294 291 287 284 281 278 276 275 273 272 272 270 262 254 251 250 247 244 244 244 244 245 246 246 247 249 249 249 248 246
306 308 311 313 313 312 313 316 317 318 320 322 324 325 325 322 320 326 336 339 338 339 337 333 331 327 322 321 320 319 318 318 318 319 321 321 320 317 315 314 313 311 310 310 310 309 307 307 307 306 304 302 301 298 295 293 290 288 287 284 280 279 279 277 276 278 274 262 252 249 248 245 241 239 240 241 243 244 245 245 246 247 247 246 243
306 309 311 311 310 310 313 316 317 319 320 321 322 325 327 325 323 327 337 343 343 339 331 323 321 319 317 316 316 314 314 315 316 317 318 316 314 312 310 309 308 308 309 309 308 306 306 305 304 304 303 302 300 298 295 293 290 288 286 284 280 277 279 279 280 284 279 262 248 246 247 243 240 238 238 238 241 243 244 244 245 245 244 242 241
306 308 309 308 308 310 313 316 318 320 321 321 321 322 325 326 326 329 336 342 344 341 332 324 322 319 314 312 313 311 310 310 312 313 315 314 312 309 307 305 306 306 305 303 302 301 302 301 300 301 301 301 300 298 297 296 293 289 286 284 279 275 278 280 283 288 284 263 247 245 245 242 238 236 235 236 239 241 242 243 243 242 240 240 241
305 307 307 306 307 311 313 316 319 320 320 321 321 322 324 324 324 330 337 341 342 342 339 335 333 329 321 316 315 315 314 314 314 313 314 315 313 311 309 307 305 304 303 300 299 300 301 301 300 301 301 303 303 302 300 297 293 289 285 284 281 278 280 282 286 293 289 264 245 241 243 241 238 235 234 235 237 238 239 239 239 238 239 241 243
304 304 304 304 307 311 313 316 318 319 319 320 321 324 326 327 327 330 338 342 343 343 344 342 339 337 333 327 322 321 321 321 318 316 317 318 318 316 311 305 301 300 299 297 296 298 300 301 303 305 307 309 308 307 305 301 296 290 285 283 282 281 281 284 289 295 291 270 248 239 239 240 240 237 235 235 234 234 235 235 235 235 238 241 244
301 301 301 303 306 310 313 316 318 318 318 320 322 325 329 332 333 335 339 343 345 346 347 348 344 340 338 336 331 327 325 323 322 322 324 323 322 318 311 304 300 299 296 295 296 297 299 303 308 311 312 312 310 308 307 304 298 292 286 282 281 281 281 287 295 295 288 278 264 248 239 239 239 236 234 234 233 232 232 233 234 235 238 241 243
297 297 299 302 305 308 312 315 317 317 317 320 322 326 331 335 338 339 340 344 347 349 350 352 350 345 341 339 337 333 330 329 330 331 328 324 321 318 312 309 308 305 299 297 301 305 308 311 314 316 316 317 316 315 313 308 302 294 288 283 281 281 283 291 298 294 283 277 272 259 247 244 243 238 235 235 233 231 232 234 235 236 238 240 241
294 295 297 300 302 307 312 315 315 315 316 319 322 327 333 337 338 340 341 344 347 349 350 352 353 350 345 343 342 340 340 340 339 335 330 324 321 319 316 317 320 321 318 316 317 318 319 320 322 323 324 323 323 323 321 316 308 299 291 285 282 282 286 293 297 292 285 283 277 263 251 247 244 241 238 236 232 231 231 234 236 238 239 241 241
292 293 295 298 301 306 311 313 314 314 315 319 324 328 332 336 338 341 344 345 347 349 350 351 352 352 352 351 348 348 352 352 346 339 335 330 326 325 327 330 333 333 334 334 331 327 327 329 332 333 330 329 332 334 331 325 317 307 295 289 286 284 287 293 295 288 285 292 287 270 254 246 242 240 241 240 238 235 234 235 238 241 243 243 240
291 293 295 297 300 305 309 310 312 313 316 320 324 327 331 336 338 341 345 347 348 350 351 353 353 354 355 355 353 355 359 357 351 346 345 342 338 336 337 339 340 338 338 338 336 333 334 337 340 339 336 339 346 348 343 335 328 320 308 295 288 284 284 289 293 289 283 287 291 280 265 257 252 249 246 245 242 240 241 243 246 246 246 241 235
290 292 294 296 299 304 307 308 310 312 316 320 323 326 331 335 337 340 344 348 349 350 352 355 358 358 357 356 357 1 2 359 354 353 354 354 352 349 346 344 343 342 341 341 339 337 338 340 341 341 343 349 353 353 352 348 339 328 320 309 299 293 290 291 296 295 286 279 282 284 274 263 258 255 251 246 242 241 243 245 245 242 239 234 228
288 290 292 295 299 302 305 306 308 311 315 319 321 325 330 333 335 339 343 346 348 350 352 357 1 2 359 358 1 3 3 2 2 3 3 3 3 360 355 351 349 348 347 345 344 342 342 343 343 344 347 351 351 349 350 353 349 336 325 317 310 306 302 299 301 302 294 283 280 282 276 264 259 258 256 252 249 246 244 244 242 239 236 233 230
286 288 290 293 297 299 301 304 307 310 315 318 320 324 328 330 333 336 340 343 345 348 352 357 1 2 2 4 7 6 4 6 10 12 11 12 12 10 7 4 359 356 354 352 351 349 347 345 345 344 344 345 344 341 342 347 350 346 334 323 316 313 310 306 304 304 300 293 287 286 282 276 269 263 259 255 251 247 244 243 241 239 236 234 232
284 286 289 292 294 296 299 302 305 309 314 317 319 322 325 327 329 333 337 340 342 344 350 357 2 3 4 9 12 10 7 9 13 15 15 17 17 17 16 13 8 4 1 357 356 354 352 350 348 345 341 338 337 337 337 339 342 343 340 335 329 322 316 312 309 307 306 304 298 292 287 282 274 265 258 254 250 246 243 241 240 237 234 231 228
283 285 289 291 292 294 296 299 303 308 311 314 316 319 322 324 327 330 334 338 340 342 348 355 1 3 5 8 12 11 10 12 15 15 16 17 17 18 19 18 15 13 9 5 1 359 356 354 352 349 346 343 340 338 340 341 340 339 337 335 334 330 325 323 325 327 325 319 309 298 289 282 274 265 258 253 249 246 243 240 237 234 231 228 226
282 285 288 289 290 292 295 298 302 306 309 311 314 316 319 322 324 328 332 335 338 341 347 353 359 3 6 8 9 10 11 13 15 17 17 17 17 18 19 19 18 17 15 13 11 8 5 3 360 356 353 352 349 346 346 346 345 344 343 344 347 350 351 351 353 354 350 341 327 311 296 284 275 268 261 255 251 247 243 240 236 232 229 227 224
280 283 285 287 288 290 294 297 301 304 306 308 311 314 317 319 321 326 330 333 336 342 348 352 357 2 5 7 9 10 12 14 16 17 18 18 17 17 18 19 19 19 17 16 16 16 16 16 12 7 3 0 358 356 354 352 351 352 353 356 360 2 2 4 6 7 7 5 355 338 319 302 289 277 267 260 255 249 245 240 235 231 228 224 221
278 280 282 284 285 288 291 295 299 302 304 306 309 311 313 315 319 325 329 331 335 340 346 352 356 0 4 7 9 11 13 15 16 17 18 18 18 18 18 18 18 19 19 18 17 17 20 23 24 22 18 13 9 7 4 1 0 359 358 358 360 2 4 5 6 8 11 13 12 6 353 335 314 293 276 265 258 251 246 241 235 230 226 222 219
275 277 279 280 281 284 289 292 296 300 302 305 309 311 311 314 319 324 326 328 332 337 343 350 355 359 2 5 8 10 12 13 15 17 18 18 19 19 19 19 19 19 19 19 19 19 20 23 27 29 29 28 25 21 17 13 10 7 5 3 2 1 3 6 9 11 13 13 14 16 14 2 338 307 283 267 257 248 241 235 231 226 222 219 216
273 275 276 277 279 282 287 291 295 299 302 305 309 312 312 315 320 323 324 325 329 334 339 345 350 355 359 1 3 6 8 10 12 14 15 17 18 18 18 19 20 20 20 20 20 20 21 22 25 28 31 33 34 33 30 28 26 22 18 16 13 10 10 12 18 23 26 24 24 25 21 12 354 317 281 258 246 239 230 223 220 217 214 212 208
270 272 273 274 276 280 286 290 293 297 301 304 307 309 312 316 319 321 321 322 325 330 334 339 344 349 352 355 357 360 2 4 7 9 11 13 15 16 17 17 18 19 21 22 22 21 21 22 24 27 29 31 34 37 37 37 36 35 34 33 31 29 28 28 31 35 36 34 34 34 32 27 19 359 308 245 226 221 216 210 207 205 202 199 196
267 268 270 272 274 278 284 288 291 295 299 303 304 306 309 314 316 316 317 319 323 327 330 333 338 341 345 348 351 353 355 357 0 3 6 8 10 11 13 14 15 16 18 20 22 22 22 21 22 25 28 29 30 33 36 37 38 38 40 40 41 41 40 41 42 42 40 38 38 39 37 36 38 45 60 102 167 186 191 192 190 188 186 183 181
264 265 266 269 272 277 282 286 290 296 300 302 303 304 307 310 311 312 313 315 318 322 324 327 330 334 336 339 343 345 348 351 354 356 359 2 4 5 7 9 11 13 14 16 18 20 21 21 21 22 25 27 28 28 31 33 34 35 36 39 42 45 46 47 48 47 45 44 44 43 42 42 48 62 78 91 110 137 157 168 169 170 171 172 174
261 264 266 268 272 277 282 286 290 295 297 299 301 302 304 307 307 307 310 313 315 318 320 321 323 327 329 332 335 338 340 343 346 348 351 355 357 359 1 3 5 7 9 10 13 15 18 20 20 19 21 24 26 27 27 29 31 32 32 35 38 42 45 48 50 50 50 50 50 50 52 54 58 68 79 87 98 114 129 141 148 154 158 162 166